This is the latest recevied weather packets stored in our database for station/object WD0REW. If no packets are shown the sender has not sent any weather packets the latest 10 day(s).
| Time | Temp. | Humidity | Pressure | Rain* | Wind** | Luminosity | Snow |
|---|---|---|---|---|---|---|---|
| 1777906069 | 22.22° C | 47% | 1009.3 hPa | 0 mm | - | 512 W/m² | - |
| 1777905766 | 22.22° C | 47% | 1009.3 hPa | 0 mm | - | 497 W/m² | - |
| 1777905463 | 22.22° C | 46% | 1009.5 hPa | 0 mm | - | 480 W/m² | - |
| 1777905161 | 21.67° C | 47% | 1009.6 hPa | 0 mm | - | 465 W/m² | - |
| 1777904857 | 21.67° C | 48% | 1009.5 hPa | 0 mm | - | 450 W/m² | - |
| 1777904555 | 21.67° C | 48% | 1009.7 hPa | 0 mm | - | 435 W/m² | - |
| 1777904252 | 21.11° C | 48% | 1009.7 hPa | 0 mm | - | 419 W/m² | - |
| 1777903949 | 21.11° C | 49% | 1009.9 hPa | 0 mm | - | 223 W/m² | - |
| 1777903645 | 21.11° C | 50% | 1009.9 hPa | 0 mm | - | 388 W/m² | - |
| 1777903341 | 21.11° C | 50% | 1009.8 hPa | 0 mm | - | 370 W/m² | - |
| 1777903038 | 21.11° C | 48% | 1010.2 hPa | 0 mm | - | 352 W/m² | - |
| 1777902734 | 20.56° C | 49% | 1010.1 hPa | 0 mm | - | 336 W/m² | - |
| 1777902432 | 20.56° C | 50% | 1010.3 hPa | 0 mm | - | 318 W/m² | - |
| 1777902128 | 20.56° C | 50% | 1010 hPa | 0 mm | - | 304 W/m² | - |
| 1777901827 | 20° C | 50% | 1010 hPa | 0 mm | - | 285 W/m² | - |
| 1777901524 | 20° C | 52% | 1010 hPa | 0 mm | - | 268 W/m² | - |
| 1777901221 | 20° C | 53% | 1010.1 hPa | 0 mm | - | 250 W/m² | - |
| 1777900919 | 19.44° C | 52% | 1010.1 hPa | 0 mm | - | 231 W/m² | - |
| 1777900616 | 19.44° C | 53% | 1010.2 hPa | 0 mm | - | 214 W/m² | - |
| 1777900313 | 19.44° C | 52% | 1010 hPa | 0 mm | - | 200 W/m² | - |
| 1777900009 | 19.44° C | 53% | 1010.1 hPa | 0 mm | - | 183 W/m² | - |
| 1777899706 | 18.89° C | 53% | 1010.3 hPa | 0 mm | - | 166 W/m² | - |
| 1777899404 | 18.89° C | 55% | 1010.4 hPa | 0 mm | - | 42 W/m² | - |
| 1777899101 | 18.33° C | 54% | 1010.2 hPa | 0 mm | - | 127 W/m² | - |
| 1777898798 | 17.78° C | 55% | 1010.2 hPa | 0 mm | - | 35 W/m² | - |
* Rain latest hour (hover to see other rain measurements)
** Current wind speed in m/s (hover to see current wind gust speed)